Location: Kaarma-Suur Asundus
(58.2614°N, 22.5264°E)
Time: 03:33:32
(UTC+00:00)

Daily predictions for brighter satellites

Satellite Brightness Start Highest point End
(mag) Time Altitude Azimuth Time Altitude Azimuth Time Altitude Azimuth
ATLAS 2AS CENTAUR R/B 3.7 01:23:27 43° ESE 01:23:27 43° ESE 01:28:04 10° ESE
Cosmos 2219 Rocket 4.0 01:28:20 26° NNE 01:28:20 26° NNE 01:32:19 10° ENE
ADEOS II 4.3 01:25:22 10° NNE 01:26:43 18° NNE 01:26:43 18° NNE
Cosmos 2333 Rocket 3.9 01:32:12 28° NNE 01:32:12 28° NNE 01:36:37 10° E
CZ-4C R/B 3.4 01:39:55 44° NE 01:39:55 44° NE 01:44:35 10° ENE
USA 234 3.6 01:46:34 10° ENE 01:52:02 58° ESE 01:52:02 58° ESE
SL-16 R/B 4.0 01:59:41 23° N 01:59:41 23° N 02:03:48 10° NE
Cosmos 2082 Rocket 3.0 02:02:50 48° E 02:02:50 48° E 02:07:29 10° NE
Resurs 1-4 Rocket 4.4 02:00:32 10° N 02:01:29 15° N 02:01:29 15° N
COSMOS 2406 4.2 02:07:29 42° NNE 02:07:29 42° NNE 02:11:17 10° NE
Lacrosse 5 3.4 02:09:36 32° ESE 02:09:36 32° ESE 02:12:48 10° E
Cosmos 1833 Rocket 3.4 02:11:33 51° NE 02:11:33 51° NE 02:15:44 10° NE
Cosmos 1934 Rocket 4.2 02:19:06 65° NNE 02:19:06 65° NNE 02:24:29 10° NNE
CZ-2C R/B 4.0 02:18:14 10° NNE 02:22:38 32° E 02:25:50 16° SSE
Cosmos 2360 Rocket 2.5 02:23:19 62° NE 02:23:19 62° NE 02:28:47 10° SE
COSMOS 2428 3.9 02:22:52 34° N 02:24:04 38° NNE 02:29:24 10° E
H-2A R/B 4.1 02:19:55 10° NNE 02:24:06 35° E 02:24:30 34° ESE
Cosmos 2237 Rocket 3.7 02:25:49 26° N 02:27:07 28° NNE 02:31:59 10° E
SL-16 R/B 3.4 02:31:17 32° SSE 02:31:17 32° SSE 02:34:13 10° SSE
NOSS 3-4 (A) 3.7 02:32:07 70° SSW 02:32:07 70° SSW 02:39:10 10° SE
NOSS 3-4 (C) 3.7 02:32:12 71° SSW 02:32:12 71° SSW 02:39:16 10° SE
Cosmos 2322 Rocket 2.9 02:37:28 42° SSE 02:37:28 42° SSE 02:41:09 10° SSE
IDEFIX/ARIANE 42P 2.8 02:37:25 10° NNE 02:41:45 62° NNE 02:41:45 62° NNE
Cosmos 2084 Rocket 4.4 02:45:34 46° ENE 02:45:34 46° ENE 02:48:46 10° ENE
SJ 16-02 2.1 02:48:36 51° E 02:48:36 51° E 02:52:31 10° NE
CZ-2D R/B 4.2 02:48:44 10° N 02:49:58 14° NNW 02:49:58 14° NNW
Cosmos 990 Rocket 4.3 02:52:37 48° SSE 02:53:48 62° ESE 02:58:59 10° NE
Cosmos 1048 Rocket 4.1 02:58:07 60° NNW 02:59:05 79° ENE 03:04:28 10° SE
Okean 3 Rocket 4.3 02:58:05 25° SSE 03:00:29 54° E 03:04:51 10° NNE
COSMO-SKYMED 1 3.0 02:57:34 10° SSE 03:01:51 61° ENE 03:02:39 51° NNE
RESURS DK-1 3.8 03:03:33 31° NNE 03:04:02 32° NNE 03:07:46 10° E
Cosmos 2322 3.8 03:05:37 43° NNW 03:07:31 74° NE 03:13:12 10° SE
Cosmos 1153 Rocket 4.3 03:02:54 15° S 03:08:04 89° W 03:14:17 10° NNE
Cosmos 1461 4.0 03:09:27 34° NNE 03:09:27 34° NNE 03:12:12 10° NE
MSX 3.7 03:02:53 10° NNE 03:08:42 89° WNW 03:11:50 29° SSW
Cosmos 2173 Rocket 4.3 03:03:03 10° S 03:09:11 64° E 03:15:15 10° NNE
COSMOS 2455 4.0 03:11:34 27° SSW 03:11:34 27° SSW 03:14:42 10° S
ADEOS II 3.8 03:05:34 10° N 03:07:39 20° NNW 03:07:39 20° NNW
NOSS 2-1 (C) 4.2 03:10:56 45° NNE 03:10:56 45° NNE 03:15:00 10° ENE
ATLAS 2AS CENTAUR R/B 3.1 03:10:57 46° WSW 03:11:18 46° SW 03:18:07 10° SSE
Cosmos 2219 Rocket 2.7 03:10:05 31° NNW 03:12:39 57° NE 03:18:15 10° ESE
Cosmos 1605 Rocket 3.9 03:12:19 57° WSW 03:13:09 62° WNW 03:19:14 10° N
USA 116 4.4 03:09:53 10° SE 03:13:17 49° ENE 03:14:08 40° NNE
NOSS 2-1 (D) 4.1 03:14:21 46° N 03:14:21 46° N 03:18:34 10° ENE
Cosmos 1933 4.0 03:12:51 36° NNE 03:14:11 54° ENE 03:18:08 10° SSE
Cosmos 1606 3.7 03:13:41 33° NNE 03:14:54 46° ENE 03:18:35 10° SE
Cosmos 468 4.4 03:15:25 64° WNW 03:16:10 77° WSW 03:21:27 10° SSE
Cosmos 839 Rocket 4.0 03:13:55 41° SW 03:16:21 85° SE 03:22:32 10° NE
Cosmos 2333 Rocket 2.6 03:14:13 31° NNW 03:17:01 62° NE 03:22:45 10° SE
Lacrosse 5 rocket 2.3 03:19:44 33° SSE 03:19:44 33° SSE 03:22:01 10° SE
Cosmos 1892 3.2 03:20:00 55° NE 03:20:00 55° NE 03:23:05 10° NNE
COBE Rocket 3.8 03:15:20 10° S 03:20:25 71° WSW 03:21:30 53° NW
SKYMED 3 4.4 03:21:35 10° SSE 03:25:57 88° WSW 03:27:02 51° NNW
Cosmos 1151 Rocket 2.9 03:26:39 78° W 03:26:39 78° W 03:31:01 10° S
CZ-4C R/B 2.9 03:25:05 41° NW 03:27:00 55° N 03:34:07 10° ENE
ARIANE 5 R/B 4.3 03:23:47 10° N 03:25:40 18° NNW 03:25:40 18° NNW
ATLAS CENTAUR R/B 3.3 03:24:23 10° S 03:28:45 33° SE 03:32:57 10° ENE
Meteor 1-31 Rocket 2.8 03:25:55 10° NNE 03:29:47 80° ESE 03:30:52 46° S
ADEOS 3.6 03:25:05 10° NNE 03:30:13 56° WNW 03:30:50 53° W
Cosmos 1825 3.4 03:27:22 10° SSE 03:30:55 41° E 03:34:31 10° NNE
Cosmos 2228 Rocket 3.5 03:29:11 10° N 03:33:47 66° ENE 03:38:21 10° SSE
Okean O Rocket 3.6 03:30:09 10° NNE 03:33:59 29° E 03:37:49 10° SSE
Cosmos 1484 Rocket 3.6 03:30:50 10° NNE 03:34:47 52° E 03:38:43 10° S
STARLINK-60 4.5 03:35:48 30° SSE 03:35:48 30° SSE 03:38:19 10° ESE
ADEOS Rocket 4.5 03:29:02 10° SE 03:36:05 44° ENE 03:42:38 10° NNW
USA 234 3.2 03:29:52 10° E 03:36:27 82° S 03:39:22 37° W
Cosmos 1328 Rocket 3.7 03:38:13 53° SW 03:38:13 53° SW 03:41:50 10° S
ALOS 3.7 03:33:44 10° NNE 03:38:10 40° E 03:42:34 10° SSE
Cosmos 1898 Rocket 3.4 03:36:43 40° SW 03:38:38 71° NW 03:43:59 10° NNE
Cosmos 494 Rocket 3.9 03:37:02 28° NNW 03:39:52 90° ENE 03:45:07 10° SSE
In-Cosmos 22 Rocket 4.0 03:35:04 10° SSW 03:40:31 78° WNW 03:46:11 10° NNE
Cosmos 1782 4.1 03:36:56 10° N 03:40:45 41° ENE 03:44:33 10° SE
SL-4 R/B 4.3 03:42:31 16° SSW 03:42:31 16° SSW 03:44:55 10° S
Cosmos 1515 Rocket 3.4 03:40:20 30° NNW 03:42:27 78° WSW 03:46:47 10° S
Cosmos 1269 Rocket 4.0 03:39:25 25° NNW 03:42:39 84° ENE 03:47:58 10° SSE
Cosmos 1937 Rocket 3.3 03:40:11 26° SW 03:43:06 82° WNW 03:48:18 10° NNE
Resurs 1-4 Rocket 4.3 03:42:03 10° NNW 03:42:32 11° NNW 03:42:32 11° NNW
SL-16 R/B 3.6 03:41:34 17° NNW 03:45:08 32° NNE 03:50:14 10° E
CZ-4B R/B 4.0 03:40:59 10° NNE 03:45:31 79° WNW 03:50:00 10° SSW
Cosmos 2082 Rocket 2.4 03:44:43 41° W 03:46:10 50° NW 03:51:44 10° NE
Meteor 1-26 Rocket 4.3 03:40:40 10° NNW 03:46:30 82° ENE 03:52:06 10° SSE
Cosmos 1459 Rocket 3.9 03:42:40 10° SSW 03:48:56 79° WNW 03:55:20 10° NNE
SKYMED 2 3.6 03:45:46 10° S 03:50:02 57° WSW 03:51:20 40° NW
COSMOS 2406 4.1 03:49:33 29° NW 03:50:39 31° NNW 03:55:47 10° NE
Lacrosse 5 1.9 03:48:49 39° WSW 03:50:41 75° S 03:55:47 10° E
STARLINK-52 4.2 03:53:00 33° SSW 03:53:21 34° S 03:56:34 10° ESE
Cosmos 2251 Rocket 4.5 03:49:53 14° NNW 03:54:17 45° NE 03:59:20 10° ESE
Cosmos 1743 Rocket 4.4 03:50:07 10° S 03:54:19 51° E 03:58:31 10° NNE
Cosmos 1833 Rocket 3.3 03:53:15 34° WNW 03:54:31 38° NNW 03:59:47 10° NE
Transit 2A Rocket 4.5 03:53:58 47° WNW 03:54:58 63° SW 03:59:22 10° SSE
Cosmos 1400 Rocket 2.7 03:52:58 22° NNW 03:55:35 86° WSW 03:59:37 10° SSE
Cosmos 2237 4.5 03:55:20 34° WNW 03:57:15 46° WSW 04:02:39 10° S
Gbstr 26 Del rocket 4.1 03:56:13 24° SSW 03:57:29 30° S 04:00:47 10° ESE
Helios 1A Rocket 4.2 03:54:51 10° NNE 03:58:49 43° E 04:02:43 10° S
NOSS 2-1 (E) 4.1 03:58:00 36° NW 03:59:10 45° N 04:04:10 10° ENE
H-2A R/B 2.9 03:55:22 10° N 03:59:42 46° WNW 04:01:03 35° WSW
Cosmos 2151 3.0 03:56:18 12° SSW 04:00:10 58° WNW 04:04:27 10° N
PAYLOAD A 4.3 03:55:07 10° N 04:00:16 51° WNW 04:05:15 11° SW
Cosmos 1408 2.4 03:57:03 10° SSW 04:00:45 79° WNW 04:04:25 10° N
Cosmos 858 Rocket 4.4 03:57:37 23° SW 04:00:50 64° NW 04:06:03 10° NNE
CZ-2C R/B 2.4 03:56:21 10° N 04:01:09 53° WNW 04:05:11 13° SW
Cosmos 1725 Rocket 4.1 03:55:14 10° S 04:01:31 81° E 04:07:53 10° NNE
Cosmos 2016 Rocket 4.0 03:55:25 10° SSW 04:01:44 87° W 04:08:10 10° NNE
Meteor PRIRODA 3.5 03:58:03 10° NNE 04:01:45 75° WNW 04:05:24 10° SSW
STARLINK-29 4.3 04:05:14 29° SW 04:05:56 32° S 04:09:05 10° SE
Cosmos 2360 Rocket 2.7 04:05:07 30° WNW 04:07:00 39° WSW 04:12:13 10° S
Cosmos 2150 Rocket 4.2 04:03:15 10° SSW 04:08:42 79° ESE 04:14:07 10° NNE
COSMOS 2428 2.6 04:04:54 21° NW 04:08:53 79° WSW 04:14:36 10° SSE
Cosmos 1408 Rocket 3.4 04:05:04 10° SSW 04:09:24 73° WNW 04:13:48 10° N
CZ-4B R/B 2.8 04:06:34 10° N 04:10:04 48° WNW 04:11:17 33° WSW
SL-16 R/B 3.7 04:13:14 18° WSW 04:13:14 18° WSW 04:15:47 10° SW
Cosmos 2237 Rocket 2.6 04:07:39 16° NNW 04:12:16 62° NE 04:17:53 10° SE
FALCON 9 DEB 4.4 04:12:02 26° SW 04:12:53 30° SSW 04:15:56 10° SE
Cosmos 1174 4.4 04:13:50 26° NNW 04:15:14 38° NNE 04:18:13 10° E
Cosmos 1500 Rocket 3.8 04:12:39 10° S 04:17:05 74° E 04:21:32 10° NNE
Cosmos 2058 4.2 04:18:02 24° NW 04:18:02 24° NW 04:20:39 10° N
Cosmos 372 Rocket 3.9 04:12:31 10° SSW 04:17:40 87° ESE 04:22:49 10° NNE
Cosmos 2322 Rocket 3.5 04:19:20 20° WSW 04:19:20 20° WSW 04:22:44 10° SSW
Tsikada Rocket 4.1 04:14:01 10° NNW 04:20:16 57° W 04:26:26 10° S
IDEFIX/ARIANE 42P 3.5 04:17:35 10° N 04:21:46 25° NW 04:22:33 24° WNW
PSLV R/B 3.7 04:18:43 10° N 04:22:32 60° WNW 04:26:25 10° SSW
Cosmos 2084 Rocket 3.9 04:22:06 28° WNW 04:24:07 49° N 04:28:28 10° ENE
Cosmos 2100 Rocket 4.1 04:19:37 10° SW 04:25:33 48° WNW 04:31:31 10° N
Exosat Rocket 3.9 04:22:23 17° NW 04:26:24 62° WSW 04:32:59 10° SSE
Cosmos 1766 Rocket 3.9 04:22:45 10° SW 04:26:50 39° WNW 04:31:00 10° N
SJ 16-02 2.0 04:25:38 27° W 04:27:03 33° NW 04:31:04 10° NNE
Meteor 1-10 Rocket 4.5 04:23:02 10° NNW 04:28:39 72° ENE 04:34:18 10° SSE
SL-08 R/B 4.4 04:23:22 10° SSW 04:29:27 70° WNW 04:35:33 10° N
METEOR-M 4.1 04:25:58 10° NNE 04:31:22 89° W 04:36:43 10° SSW
SL-27 R/B 3.9 04:32:42 19° NNW 04:32:42 19° NNW 04:34:46 10° N
CZ-2C R/B 4.0 04:29:00 10° SSE 04:33:34 70° ENE 04:38:15 10° NNW
COSMOS 2487 2.3 04:30:37 10° SW 04:34:04 64° WNW 04:37:32 10° NNE
SJ-12 3.9 04:32:45 10° N 04:36:53 61° WNW 04:40:59 10° SSW
NOSS 3-3 (A) 4.1 04:31:17 14° WSW 04:36:55 75° NNW 04:44:10 10° ENE
NOSS 3-3 (C) 4.1 04:31:22 14° WSW 04:37:01 76° NNW 04:44:17 10° ENE
Cosmos 1980 3.7 04:32:49 13° NW 04:37:59 84° NE 04:43:41 10° SE
COSMO-SKYMED 1 3.6 04:34:48 10° SSW 04:38:22 24° W 04:39:50 20° WNW
FENGYUN 3A 3.6 04:33:04 10° NNE 04:38:33 84° WNW 04:43:58 10° SSW
Okean 3 Rocket 4.4 04:35:38 13° WSW 04:38:52 28° WNW 04:42:46 10° N
Iridium 82 4.4 04:36:53 10° N 04:40:27 80° W 04:44:02 10° S
STARLINK-43 4.5 04:38:22 16° WSW 04:40:52 37° S 04:44:20 10° ESE
RESURS DK-1 2.4 04:39:27 18° NW 04:42:23 67° SW 04:46:30 10° SSE
Cosmos 1802 Rocket 4.3 04:39:33 10° SW 04:45:42 46° WNW 04:51:51 10° N
NOSS 0 Rocket 4.0 04:41:04 13° NW 04:46:48 72° WSW 04:53:01 10° SSE
Cosmos 1461 3.9 04:45:51 18° NW 04:48:10 31° N 04:51:53 10° ENE
Meteor 2-3 Rocket 3.8 04:43:29 10° SSW 04:49:17 82° WNW 04:55:09 10° NNE
Cosmos 1437 3.0 04:46:48 10° SW 04:49:43 40° WNW 04:52:40 10° N
Nadezhda 4 Rocket 4.4 04:43:58 10° N 04:50:19 68° ENE 04:56:35 10° SSE
Cosmos 1606 3.8 04:48:46 18° NW 04:50:26 24° W 04:53:32 10° SW
Cosmos 1933 4.5 04:48:45 17° NW 04:50:27 23° W 04:53:38 10° SW
Cosmos 2298 Rocket 4.1 04:45:44 10° SW 04:50:58 58° NW 04:56:14 10° NNE
Cosmos 2322 4.5 04:47:35 16° NW 04:51:20 31° WSW 04:56:15 10° SSW
Aureole 1 Rocket 3.2 04:50:42 10° NNW 04:53:56 55° NE 04:57:57 10° SE
CZ-4B R/B 3.1 04:48:47 10° NNE 04:54:12 81° WNW 04:59:40 10° SSW
MOS 1-B 4.4 04:48:54 10° NNE 04:54:36 58° WNW 05:00:16 10° SW
Cosmos 2173 Rocket 4.5 04:49:17 10° SW 04:54:56 36° WNW 05:00:34 10° N
Cosmos 1892 4.1 04:55:04 18° WNW 04:55:29 18° WNW 04:58:09 10° NNW
Cosmos 2219 Rocket 2.6 04:51:49 13° NW 04:56:34 43° WSW 05:01:53 10° S
Lacrosse 5 rocket 3.0 04:55:24 13° WSW 04:57:00 16° SW 04:59:17 10° S
Cosmos 1315 Rocket 3.0 04:54:26 10° NNW 04:58:20 51° W 05:02:16 10° S
ATLAS 2AS CENTAUR R/B 4.4 04:58:26 13° W 05:00:24 14° WSW 05:03:50 10° SW
Cosmos 2333 Rocket 2.8 04:56:15 12° NW 05:01:09 40° WSW 05:06:29 10° S
NOSS 2-1 (C) 4.3 04:58:16 16° WNW 05:01:34 49° NNE 05:06:59 10° E
Cosmos 1862 Rocket 3.9 04:57:24 10° N 05:01:48 71° ENE 05:06:11 10° SSE
Meteor 1-31 Rocket 4.2 05:01:04 10° N 05:03:47 19° NW 05:06:14 11° W
NOSS 2-1 (D) 4.3 05:01:41 15° WNW 05:05:07 50° NNE 05:10:36 10° E
Cosmos 2061 Rocket 4.4 04:59:31 10° SW 05:05:18 39° WNW 05:11:06 10° N
Meteor 1-27 Rocket 3.9 05:00:04 10° NNW 05:05:55 84° ENE 05:11:51 10° SSE
Cosmos 1825 3.1 05:03:19 10° SW 05:06:36 27° WNW 05:09:54 10° N
Cosmos 1812 2.9 05:03:13 10° N 05:07:08 75° ENE 05:11:00 10° SSE
ATLAS CENTAUR R/B 1.6 05:02:37 10° WSW 05:07:30 78° NNW 05:12:08 10° NE
Cosmos 2233 Rocket 4.0 05:01:50 10° SSW 05:08:05 62° WNW 05:14:24 10° N
Cosmos 1484 Rocket 3.8 05:05:37 10° N 05:09:00 27° WNW 05:12:24 10° WSW
SAR-Lupe-2 3.5 05:05:28 10° S 05:09:01 67° WSW 05:12:38 10° NNW
Cosmos 2242 Rocket 4.3 05:04:36 10° N 05:09:10 59° ENE 05:13:41 10° SSE
Okean O Rocket 1.7 05:06:21 10° N 05:10:35 50° WNW 05:14:48 10° SW
Cosmos 2228 Rocket 4.3 05:07:59 10° NNW 05:11:37 23° W 05:15:13 10° SW
ALOS 2.6 05:11:15 10° N 05:15:39 42° WNW 05:20:03 10° SW
CZ-4C R/B 2.9 05:10:16 12° WNW 05:16:23 71° NNE 05:24:04 10° ESE
Cosmos 839 Rocket 4.4 05:10:44 10° W 05:16:52 47° NNW 05:22:53 10° ENE
Cosmos 1782 3.7 05:13:29 10° NNW 05:16:59 29° W 05:20:27 10° SSW
USA 234 3.5 05:13:18 10° ESE 05:19:49 66° SSW 05:26:21 10° WNW
SMAP 3.1 05:15:31 10° NNE 05:20:13 87° ESE 05:24:55 10° SSW
Cosmos 1707 Rocket 4.0 05:16:37 10° NNW 05:20:54 44° W 05:25:10 10° SSW
ADEOS Rocket 3.5 05:13:48 10° S 05:21:24 66° WSW 05:28:29 10° NNW
Meteor 2-6 Rocket 4.4 05:19:02 10° NNW 05:24:12 47° W 05:29:26 10° SSW
Envisat 3.8 05:20:02 10° NNE 05:25:04 56° E 05:30:04 10° S
H-2A R/B 2.6 05:21:56 10° NNE 05:25:40 78° WNW 05:29:22 10° SSW
Cosmos 1937 Rocket 4.5 05:21:33 10° W 05:25:51 26° NW 05:30:11 10° NNE
SL-16 R/B 2.4 05:24:19 10° NW 05:30:04 81° NE 05:35:47 10° SE
Cosmos 1238 Rocket 4.1 05:24:40 10° SW 05:30:36 43° WNW 05:35:45 10° N
Cosmos 1805 Rocket 3.6 05:27:06 10° SSW 05:31:23 53° WNW 05:35:39 10° N
Cosmos 2082 Rocket 3.4 05:26:50 10° WNW 05:31:33 25° NNW 05:36:16 10° NE
Cosmos 1743 Rocket 4.4 05:28:40 10° WSW 05:32:25 28° WNW 05:36:12 10° N
Lacrosse 5 2.1 05:28:31 10° W 05:33:36 72° SSW 05:38:39 10° ESE
Cosmos 1943 4.2 05:28:26 10° NW 05:33:42 38° NNE 05:38:57 10° ESE
Helios 1A Rocket 3.6 05:30:13 10° N 05:33:55 32° WNW 05:37:34 10° WSW
H-2A R/B 4.5 05:32:13 10° NNW 05:34:13 13° NW 05:36:14 10° WNW
AQUARIUS 4.1 05:29:42 10° NNE 05:34:14 78° WNW 05:38:44 10° SSW
Cosmos 1092 Rocket 4.1 05:29:51 10° NNW 05:36:12 86° ENE 05:42:27 10° SSE
Cosmos 1408 4.4 05:34:37 10° W 05:36:28 13° NW 05:38:18 10° NNW
Cosmos 2251 Rocket 3.9 05:31:36 10° NW 05:36:40 47° WSW 05:41:40 10° S
Cosmos 1464 Rocket 4.0 05:31:50 10° SSW 05:38:09 81° WNW 05:44:24 10° NNE
CZ-2C R/B 4.0 05:35:40 10° N 05:38:26 15° NW 05:41:09 10° WNW
Cosmos 407 Rocket 3.8 05:33:18 10° NNW 05:38:35 70° ENE 05:43:53 10° SE
CORIOLIS 4.3 05:33:38 10° NNE 05:39:09 89° WNW 05:44:37 10° SSW
CZ-2C R/B 3.1 05:34:28 10° SSE 05:39:55 66° ENE 05:45:16 10° NNW
Cosmos 1833 Rocket 4.0 05:35:31 10° WNW 05:39:58 23° N 05:44:25 10° NE
YAOGAN 6 3.1 05:38:46 10° NNE 05:42:19 63° ESE 05:45:53 10° S
YAOGAN 1 4.0 05:39:16 10° NNE 05:43:25 42° E 05:47:33 10° S
Gbstr 26 Del rocket 4.3 05:40:25 10° WSW 05:43:36 27° SSW 05:46:53 10° SE
Okean 1-7 3.6 05:39:24 10° N 05:43:44 62° ENE 05:48:05 10° SSE
Cosmos 1125 Rocket 3.8 05:40:33 10° WSW 05:45:37 46° NW 05:50:42 10° NNE
